This demonstration page uses our WeatherBlox Daily Observations layout. Learn more.

38.88101, -77.10428

Hourly Observations for March 6, 2018

Temp ( °F °C ) Dew Point ( °F °C ) Humidity (%) Winds ( mph kmh ) Pressure ( in mb ) Visibility ( mi km ) Precip ( " mm )
12:52 am 00:52 Partly Cloudy 37 2.8 24 -4.4 59 59 NE 7 11 30.11 1020 10 16.0934 0 0
1:52 am 01:52 Mostly Clear 35 1.7 23 -5 61 61 NNE 7 11 30.1 1019 10 16.0934 0 0
2:52 am 02:52 Mostly Clear 35 1.7 23 -5 61 61 NE 8 13 30.08 1019 10 16.0934 0 0
3:52 am 03:52 Mostly Clear 34 1.1 23 -5 64 64 NE 6 9 30.07 1018 10 16.0934 0 0
4:52 am 04:52 Mostly Cloudy 33 0.6 23 -5 66 66 NE 6 9 30.08 1019 10 16.0934 0 0
5:52 am 05:52 Mostly Cloudy 33 0.6 24 -4.4 70 70 ENE 5 7 30.08 1019 10 16.0934 0 0
6:52 am 06:52 Mostly Cloudy 34 1.1 25 -3.9 70 70 ENE 6 9 30.08 1019 10 16.0934 0 0
7:52 am 07:52 Mostly Cloudy 35 1.7 25 -3.9 67 67 ENE 3 6 30.09 1019 10 16.0934 0 0
8:52 am 08:52 Cloudy 37 2.8 26 -3.3 65 65 ESE 5 7 30.08 1019 10 16.0934 0 0
9:52 am 09:52 Cloudy 40 4.4 27 -2.8 60 60 SSE 3 6 30.06 1018 10 16.0934 0 0
10:52 am 10:52 Cloudy 42 5.6 27 -2.8 55 55 SSE 7 11 30.04 1017 10 16.0934 0 0
11:52 am 11:52 Cloudy 44 6.7 27 -2.8 51 51 S 8 13 30.01 1016 10 16.0934 0 0
12:52 pm 12:52 Cloudy 45 7.2 27 -2.8 49 49 S 6 9 29.99 1016 10 16.0934 0 0
1:52 pm 13:52 Cloudy 46 7.8 27 -2.8 47 47 S 9 15 29.96 1015 10 16.0934 0 0
2:52 pm 14:52 Cloudy 45 7.2 25 -3.9 46 46 S 10 17 29.95 1014 10 16.0934 0 0
3:52 pm 15:52 Cloudy 44 6.7 32 0 63 63 S 13 20 29.93 1013 10 16.0934 0 0.0254
4:52 pm 16:52 Cloudy 44 6.7 31 -0.6 60 60 S 10 17 29.92 1013 10 16.0934 0 0.0254
5:52 pm 17:52 Cloudy 43 6.1 31 -0.6 63 63 SSE 9 15 29.91 1013 10 16.0934 0 0
6:52 pm 18:52 Cloudy 43 6.1 31 -0.6 63 63 SSE 9 15 29.88 1012 10 16.0934 0 0
7:52 pm 19:52 Cloudy with Light Rain 41 5 34 1.1 76 76 SE 12 19 29.9 1012 10 16.0934 0.01 0.254
8:07 pm 20:07 Cloudy with Light Rain 40 4.4 35 1.7 83 83 SSE 13 20 29.91 1013 10 16.0934 0 0.0254
8:18 pm 20:18 Cloudy with Light Rain 39 3.9 35 1.7 86 86 SSE 9 15 29.91 1013 9 14.48406 0.01 0.254
8:27 pm 20:27 Cloudy with Light Rain 38 3.3 35 1.7 89 89 SSE 12 19 29.88 1012 9 14.48406 0.03 0.762
8:37 pm 20:37 Cloudy with Light Rain 37 2.8 34 1.1 89 89 SSE 10 17 29.88 1012 9 14.48406 0.04 1.016
8:39 pm 20:39 Cloudy with Light Rain/Snow 36 2.2 34 1.1 93 93 SSE 9 15 29.88 1012 8 12.87472 0.04 1.016
8:52 pm 20:52 Cloudy with Light Rain/Snow 36 2.2 34 1.1 93 93 SSE 7 11 29.88 1012 5 8.0467 0.06 1.524
9:06 pm 21:06 Cloudy with Light Snow 35 1.7 33 0.6 93 93 SSE 5 7 29.88 1012 4 6.43736 0.03 0.762
9:34 pm 21:34 Cloudy with Light Snow 34 1.1 32 0 92 92 Calm 29.88 1012 2.5 4.02335 0.08 2.032
9:41 pm 21:41 Cloudy with Light Snow 34 1.1 32 0 92 92 E 3 6 29.88 1012 2 3.21868 0.09 2.286
9:52 pm 21:52 Cloudy with Light Snow 34 1.1 33 0.6 97 97 N 6 9 29.87 1012 3 4.82802 0.11 2.794
10:07 pm 22:07 Cloudy with Light Snow 34 1.1 33 0.6 97 97 ENE 5 7 29.88 1012 3 4.82802 0.03 0.762
10:14 pm 22:14 Cloudy with Light Snow 34 1.1 33 0.6 97 97 NE 5 7 29.88 1012 3 4.82802 0.04 1.016
10:42 pm 22:42 Cloudy with Light Snow 34 1.1 33 0.6 97 97 N 3 6 29.88 1012 2.5 4.02335 0.06 1.524
10:44 pm 22:44 Cloudy with Light Snow 34 1.1 33 0.6 97 97 N 5 7 29.88 1012 2.5 4.02335 0.06 1.524
10:52 pm 22:52 Cloudy with Light Snow 34 1.1 33 0.6 97 97 NE 3 6 29.86 1011 3 4.82802 0.07 1.778
11:43 pm 23:43 Cloudy with Light Snow 34 1.1 33 0.6 97 97 NE 8 13 29.85 1011 4 6.43736 0.05 1.27
11:52 pm 23:52 Cloudy with Light Snow 34 1.1 33 0.6 97 97 ENE 9 15 29.84 1011 4 6.43736 0.05 1.27

Powered by AerisWeather